Regional Weather Roundup
Issued by NWS

Home | Current Version | Previous Version | Graphics & Text | Print | Product List | Glossary On
Versions: 1 2 3 4 5 6 7 8 9 10 11 12 13 14 15 16 17 18 19 20 21 22 23 24 25 26 27 28 29 30 31 32 33 34 35 36 37 38 39 40 41 42 43 44 45 46 47 48 49 50
000
ASUS43 KOAX 030502
RWRNE

WEATHER ROUNDUP FOR NEBRASKA
NATIONAL WEATHER SERVICE OMAHA NE
1200 AM CDT MON AUG 03 2015

NOTES: SATELLITE DATA IS BEING USED TO AUGMENT CLOUD COVER ABOVE
       12000 FEET.
       "FAIR" INDICATES FEW OR NO CLOUDS BELOW 12,000 FEET WITH NO
       SIGNIFICANT WEATHER AND/OR OBSTRUCTIONS TO VISIBILITY.

  * THESE STATIONS DO NOT REPORT WEATHER SUCH AS RAIN...SNOW OR FOG.

NEZ001>004-019>022-054>056-030600-
NEBRASKA PANHANDLE

CITY           SKY/WX    TMP DP  RH WIND       PRES   REMARKS
SCOTTSBLUFF    MOCLDY    69  58  67 E8        30.00S
ALLIANCE       MOCLDY    65  55  70 E3        30.01R
CHADRON        CLEAR     69  57  65 NE8       30.00S
KIMBALL        MOCLDY    65  52  62 S6        30.06S
SIDNEY         PTCLDY    67  55  65 S8        30.05S
$$

NEZ057>060-069>072-079>082-030600-
SOUTHWEST NEBRASKA

CITY           SKY/WX    TMP DP  RH WIND       PRES   REMARKS
NORTH PLATTE   MOCLDY    65  58  78 CALM      29.97S
IMPERIAL       PTCLDY    75  52  44 S10       29.99R
LEXINGTON      MOCLDY    64  59  86 N8        29.94R
MCCOOK         PTCLDY    70  58  65 SW5       29.94S
OGALLALA       MOCLDY    73  56  56 CALM      29.98S
$$

NEZ005>010-023>029-035>040-094-030600-
NORTH CENTRAL NEBRASKA

CITY           SKY/WX    TMP DP  RH WIND       PRES   REMARKS
AINSWORTH      CLEAR     67  63  85 NE5       29.99S
BROKEN BOW     PTCLDY    64  57  78 N3        29.96R
O`NEILL        CLEAR     69  61  76 NE6       29.96R
ORD            CLEAR     71  64  78 SE3       29.93R
THEDFORD       CLEAR     69  62  76 CALM      30.00S
$$

NEZ041-046>049-061>064-073>077-083>087-030600-
SOUTH CENTRAL NEBRASKA

CITY           SKY/WX    TMP DP  RH WIND       PRES   REMARKS
GRAND ISLAND   PTCLDY    68  61  78 CALM      29.92R
AURORA         PTCLDY    67  64  90 N7        29.91R
HASTINGS       PTCLDY    68  61  78 N3        29.91S
HEBRON         PTCLDY    74  68  80 CALM      29.88S
HOLDREGE       MOCLDY    67  56  65 W3        29.92R
KEARNEY *      MOCLDY    64  55  72 NE6       29.93R
YORK           CLEAR     72  68  88 NE8       29.90R
$$

NEZ011>018-030>034-042>045-030600-
NORTHEAST NEBRASKA

CITY           SKY/WX    TMP DP  RH WIND       PRES   REMARKS
NORFOLK        CLEAR     73  65  75 CALM      29.91R
ALBION         CLEAR     72  65  80 N5        29.92S
BLAIR          PTCLDY    74  69  83 CALM      29.88R
COLUMBUS *     CLEAR     70  63  78 CALM      29.90R
FREMONT        CLEAR     74  68  81 CALM      29.89R
TEKAMAH        CLEAR     73  71  93 N6        29.87R
WAYNE          CLEAR     66  64  93 N3        29.91S
$$

NEZ050>053-065>068-078-088>093-030600-
SOUTHEAST NEBRASKA

CITY           SKY/WX    TMP DP  RH WIND       PRES   REMARKS
LINCOLN        PTCLDY    74  60  61 N6        29.88R
OMAHA EPPLEY   PTCLDY    79  72  79 CALM      29.87R
BEATRICE       CLEAR     78  72  81 W3        29.88R
FALLS CITY     CLEAR     80  72  76 SW8       29.84S
NEBRASKA CITY  CLEAR     76  74  95 NE5       29.86S
PLATTSMOUTH    PTCLDY    76  72  87 NE5       29.87S
$$

NEZ044-045-051>053-067-030600-
OMAHA AREA

CITY           SKY/WX    TMP DP  RH WIND       PRES   REMARKS
OMAHA EPPLEY   PTCLDY    79  72  79 CALM      29.87R
BLAIR          PTCLDY    74  69  83 CALM      29.88R
FREMONT        CLEAR     74  68  81 CALM      29.89R
MILLARD        PTCLDY    79  72  78 CALM      29.87R
OFFUTT AFB     PTCLDY    76  72  87 NE6       29.86S
PLATTSMOUTH    PTCLDY    76  72  87 NE5       29.87S
WAHOO          FAIR      68  66  92 W3        29.89R
$$


USA.gov is the U.S. government's official web portal to all federal, state and local government web resources and services.